Home > Weather > Lafayette > Past weeks

Flag for USA Past Weather in Lafayette, Indiana, USA — Yesterday and Last 2 Weeks

Now
72 °F

Sunny.


Feels Like: 75 °F
Forecast: 64 / 88 °F
Wind: 3 mph from Southeast

Location: Purdue University Airport

Current Time: Jun 25, 2016 at 10:10:55 AM

Latest Report: Jun 25, 2016 at 8:54 AM


Visibility: 8 mi

Pressure: 30.11 "Hg

Humidity: 66%

Dew Point: 60 °F

Location of LafayetteLocation

Past Weather in Lafayette — Graph

°F

Lafayette Temperature Yesterday

Maximum temperature yesterday: 82 °F (at 6:54 PM)
Minimum temperature yesterday: 64 °F (at 5:54 AM)
Average temperature yesterday: 72 °F

High & Low Weather Summary for the Past Weeks

 TemperatureHumidityPressure
High92 °F (Jun 10, 4:54 PM)100% (Jun 20, 7:54 PM)30.25 "Hg (Jun 20, 7:54 PM)
Low54 °F (Jun 13, 5:54 AM)27% (Jun 18, 3:54 PM)29.72 "Hg (Jun 15, 4:54 PM)
Average75 °F69%29.97 "Hg
* Reported Jun 10 8:54 AM — Jun 25 8:54 AM, Lafayette, Weather by CustomWeather, © 2016

Note: Actual official high and low records may vary slightly from our data, if they occured in-between our weather recording intervals... More about our weather records

Advertising

Lafayette Weather History for the Previous 24 Hours

Scroll right to see more
 ConditionsComfort  
Time TempWeatherWind HumidityBarometerVisibility
8:54 AM
Sat, Jun 25
72 °FSunny.3 mph66%30.11 "Hg8 mi
7:54 AM68 °FSunny.5 mph78%30.11 "Hg10 mi
6:54 AM65 °FClear.5 mph87%30.09 "Hg10 mi
5:54 AM65 °FClear.6 mph87%30.08 "Hg10 mi
4:54 AM66 °FClear.5 mph90%30.07 "Hg10 mi
3:54 AM67 °FClear.No wind90%30.07 "Hg10 mi
2:54 AM68 °FClear.No wind90%30.06 "Hg10 mi
1:54 AM66 °FClear.No wind100%30.07 "Hg10 mi
12:54 AM67 °FClear.No wind93%30.07 "Hg10 mi
11:54 PM
Fri, Jun 24
70 °FClear.No wind84%30.06 "Hg10 mi
10:54 PM71 °FClear.3 mph81%30.05 "Hg10 mi
9:54 PM73 °FSunny.No wind76%30.04 "Hg10 mi
8:54 PM76 °FSunny.5 mph69%30.03 "Hg10 mi
7:54 PM79 °FSunny.6 mph62%30.03 "Hg10 mi
6:54 PM82 °FPartly sunny.7 mph56%30.03 "Hg10 mi
5:54 PM81 °FPassing clouds.7 mph56%30.04 "Hg10 mi
4:54 PM80 °FPartly sunny.7 mph58%30.05 "Hg10 mi
3:54 PM81 °FPassing clouds.7 mph56%30.06 "Hg10 mi
2:54 PM81 °FPassing clouds.8 mph58%30.06 "Hg10 mi
1:54 PM79 °FSunny.13 mph62%30.05 "Hg10 mi
12:54 PM78 °FSunny.9 mph66%30.05 "Hg10 mi
11:54 AM76 °FPassing clouds.5 mph72%30.05 "Hg10 mi
10:54 AM73 °FOvercast.8 mph74%30.04 "Hg10 mi
Weather by CustomWeather, © 2016

See weather overviewHow to use our weather pages